RH
28 30 27 30 38 24 27 28 29 27 26 26 26 26 25 26 26 25 24 24 25 26 28 29 25 24 30 35 38 37 42 53 66 75 50 68 65 79 86 97 86 86 87
50 34 36 39 27 28 30 31 27 27 25 23 23 23 22 24 27 31 33 34 33 31 29 29 31 30 28 36 42 44 44 48 68 85 94 94 79 80 95 98 98 96 88
49 47 38 33 31 32 30 23 23 24 27 31 33 35 35 36 36 37 38 38 38 39 38 36 32 34 34 33 43 50 53 58 60 82 91 97 97 90 89 98 98 96 94
48 42 37 34 34 25 23 28 35 34 31 29 28 29 30 30 31 30 30 31 33 35 38 40 39 36 37 37 35 46 57 63 70 78 95 93 99 98 97 83 92 96 87
47 40 36 29 26 33 38 35 32 29 27 26 26 26 28 29 30 31 32 34 35 37 39 42 42 41 39 40 40 36 42 58 66 83 79 90 99 98 100 100 90 86 96
39 30 28 32 38 37 35 30 29 28 28 27 26 27 29 30 32 34 36 36 36 37 40 42 44 46 46 42 40 40 40 38 58 69 71 87 96 93 99 99 93 99 99
37 30 36 39 38 34 31 32 32 31 28 25 24 26 28 31 34 36 37 38 38 38 40 41 44 48 49 49 46 42 42 43 39 53 67 73 80 86 94 96 93 97 91
38 36 39 39 36 34 35 36 34 31 26 24 26 28 30 33 36 38 39 39 40 41 42 43 44 46 48 50 50 46 44 43 45 43 44 64 70 72 76 82 94 88 80
42 39 39 38 37 38 38 37 34 29 26 24 24 29 33 36 37 38 39 39 40 40 41 44 46 47 47 49 51 51 50 48 46 45 46 40 47 60 65 68 73 92 86
42 39 38 38 39 39 39 37 32 27 25 25 28 32 36 40 43 44 44 45 45 44 44 43 42 43 46 49 50 52 53 54 53 51 48 48 39 36 38 35 32 40 77
39 37 38 39 40 40 40 35 30 29 28 28 30 35 42 46 47 47 45 42 40 42 45 47 47 46 44 44 46 49 53 56 58 56 52 50 50 38 28 23 20 20 40
35 36 41 38 41 43 39 34 34 34 32 31 34 41 48 51 52 51 50 48 40 34 32 31 33 40 45 46 46 46 48 53 58 59 57 52 51 50 44 31 23 23 25
38 40 44 42 46 44 38 39 39 38 35 33 36 46 54 56 56 53 48 46 45 35 27 22 21 19 22 27 36 44 47 50 55 59 60 57 54 52 51 50 40 27 25
43 44 49 52 47 42 42 44 43 41 37 33 32 40 50 54 50 36 24 17 13 11 10 12 14 14 15 15 18 24 32 40 48 52 57 60 60 57 56 53 53 46 32
43 49 53 54 48 44 48 48 45 42 38 34 26 23 24 21 15 13 12 13 14 15 15 15 14 13 12 12 12 13 15 20 26 36 48 53 56 59 59 58 56 55 46
41 49 50 48 46 48 53 51 48 44 42 38 28 18 15 14 15 18 18 18 17 16 14 12 10 8 8 7 8 9 9 11 14 19 28 39 51 56 57 58 59 58 54
44 51 49 49 48 52 55 55 52 48 46 43 28 22 25 27 26 25 24 23 21 17 12 10 9 8 8 8 7 7 7 7 7 8 9 14 25 37 52 57 58 60 59
50 53 57 54 53 55 57 58 56 54 52 48 40 38 41 39 34 31 26 22 16 12 10 9 10 9 9 9 9 9 8 8 8 7 7 7 8 16 39 49 55 59 60
54 54 57 57 58 59 62 62 60 59 58 54 50 51 53 49 42 34 25 20 15 14 14 13 12 11 11 11 11 10 10 9 8 8 8 7 7 10 21 39 48 53 54
45 53 59 62 65 66 65 64 61 57 56 59 61 59 54 44 33 27 23 20 18 17 16 16 16 15 15 14 14 13 12 11 10 9 8 8 7 8 12 30 55 74 51
59 67 72 72 70 69 67 72 65 62 62 64 58 47 44 43 39 33 29 26 24 23 21 20 18 17 16 15 15 15 16 15 14 12 10 9 9 9 10 18 30 47 82
80 81 80 76 74 80 73 66 66 65 61 54 49 43 38 32 28 26 24 24 24 24 22 21 18 16 15 16 14 16 18 20 21 18 16 13 11 11 11 13 18 40 63
78 76 75 76 76 75 71 63 54 44 38 34 31 29 27 25 24 24 23 24 24 27 29 28 26 22 20 19 18 17 19 22 23 20 22 20 16 14 12 12 16 34 93
68 63 62 55 44 38 37 36 34 34 37 38 36 30 23 19 16 17 20 25 25 32 44 46 36 34 29 24 19 20 24 26 27 26 27 25 25 22 21 19 18 20 54
43 40 40 41 49 52 50 45 39 36 42 42 38 35 32 27 24 21 20 20 20 24 31 31 35 36 33 26 28 32 35 42 50 91 87 65 46 52 40 60 63 58 55
44 43 42 44 48 54 54 48 31 27 29 30 32 41 42 37 36 33 24 19 22 23 29 36 42 41 42 37 34 35 44 58 64 98 96 92 60 72 66 80 88 87 88
Wind_Speed
10 11 12 10 7 4 3 4 8 10 10 10 9 7 8 9 10 12 12 13 14 15 15 15 15 15 15 16 17 17 16 13 17 17 17 5 7 10 12 16 18 16 14
9 12 12 9 7 5 3 5 7 8 9 9 10 10 11 11 12 13 14 15 16 16 17 17 17 16 16 15 16 16 17 15 14 15 13 10 6 12 9 14 19 15 15
11 11 10 9 7 4 3 3 4 6 8 9 10 12 13 13 14 16 16 17 18 19 19 19 18 17 17 16 16 16 15 15 12 10 7 6 5 21 8 12 16 19 16
9 10 10 8 5 2 3 4 5 8 10 11 12 13 15 16 17 18 19 19 19 19 19 19 18 18 18 17 16 16 15 14 12 11 6 8 10 7 12 13 11 17 16
8 9 9 7 6 5 4 4 7 9 10 12 14 15 16 18 19 19 19 18 18 18 17 18 18 18 18 17 17 17 16 15 14 12 12 11 10 9 10 14 14 13 14
9 9 10 9 7 4 3 4 7 9 12 14 16 16 17 18 18 18 18 18 17 17 17 17 17 17 17 17 17 17 17 16 16 15 14 12 9 10 10 13 15 15 10
10 12 11 9 6 3 3 5 8 12 14 16 16 17 17 18 18 19 20 20 19 18 17 17 16 17 17 17 17 17 18 17 18 17 17 16 15 14 14 14 16 15 15
12 13 12 9 6 3 1 6 10 13 15 16 17 17 18 17 17 18 18 19 19 19 18 17 16 17 17 17 18 18 19 18 19 19 19 19 18 19 18 17 15 19 15
15 15 13 10 8 4 4 8 11 12 14 16 17 18 17 17 17 16 17 17 18 18 17 17 17 17 17 18 18 18 18 19 20 20 20 20 20 20 20 20 19 15 14
17 17 15 12 9 5 5 8 10 12 14 16 17 17 16 15 15 15 15 15 16 16 17 16 16 15 16 16 17 18 18 19 19 20 20 20 20 20 20 21 20 19 17
17 18 17 15 11 7 6 7 9 11 13 15 16 16 15 14 14 14 15 15 16 16 16 16 17 16 16 16 16 17 17 19 19 19 20 20 19 20 20 20 20 20 18
19 19 17 16 11 8 6 6 8 11 13 15 15 15 15 14 14 15 16 16 16 16 16 17 17 16 16 15 16 16 16 17 17 17 19 20 19 21 20 20 21 21 19
16 16 17 15 11 8 5 6 8 11 15 16 16 15 15 14 15 16 17 17 17 17 17 17 17 17 16 16 16 16 16 15 16 16 17 18 19 21 21 21 22 22 22
15 15 15 13 11 7 5 6 10 13 15 16 17 16 16 16 17 17 17 17 17 16 16 16 16 16 17 17 16 16 16 17 17 17 17 18 18 20 21 22 23 23 23
16 16 14 12 11 8 6 8 11 14 16 17 17 17 17 17 16 16 16 15 15 15 16 17 17 17 17 17 17 17 17 17 18 17 17 17 18 19 21 23 23 23 23
14 16 17 15 13 9 8 10 13 16 18 18 18 18 17 16 16 16 16 17 18 19 19 19 19 19 17 17 17 18 19 18 18 19 19 19 18 18 19 20 23 24 24
9 13 17 16 13 11 11 13 15 17 19 20 19 18 18 18 18 18 19 20 21 22 22 20 19 19 18 18 18 18 19 20 21 21 22 22 21 21 21 21 21 23 26
8 7 10 12 12 13 15 17 18 18 19 20 19 19 20 21 22 23 23 23 23 22 22 21 21 21 21 20 20 21 21 22 22 22 23 23 23 22 22 24 25 24 24
15 11 12 14 16 17 17 18 18 20 22 22 21 21 22 23 24 24 24 24 23 23 23 24 24 25 25 24 23 23 23 24 25 25 26 25 26 25 23 24 25 27 28
19 18 19 20 19 18 20 20 20 22 23 21 22 23 25 24 24 24 24 24 25 26 27 27 27 27 27 26 24 24 25 26 27 27 27 28 26 25 25 25 25 26 27
20 19 18 19 18 18 18 21 21 22 19 21 22 22 22 24 26 28 29 31 31 31 32 33 32 32 32 31 27 27 27 28 28 29 29 27 26 26 26 25 26 27 26
16 16 17 16 16 18 19 19 20 19 20 21 24 25 26 28 29 31 32 32 34 35 35 34 35 33 33 33 31 29 29 28 29 29 27 27 26 27 28 29 29 25 24
20 20 19 19 16 15 17 19 20 21 24 25 27 27 27 29 30 31 33 34 34 33 33 33 36 37 35 34 33 32 30 29 30 29 28 29 30 29 29 28 29 27 23
20 18 17 17 17 16 18 20 22 23 25 26 27 28 28 29 29 30 31 33 34 33 31 30 37 39 38 36 33 31 31 30 29 27 27 29 31 32 32 31 30 30 25
23 21 20 19 21 22 24 26 29 29 28 30 31 32 32 32 33 34 35 35 36 36 37 38 38 37 39 37 34 32 32 29 27 24 26 30 33 33 35 32 30 30 31
29 29 28 27 31 33 35 35 35 35 33 33 33 31 32 34 34 35 39 39 40 38 37 37 37 38 37 36 34 33 31 30 29 26 29 32 35 34 34 31 29 28 26
Wind_Direction
186 189 180 181 188 194 212 292 320 328 336 346 353 352 346 343 341 340 338 336 333 330 329 328 328 330 331 328 328 331 334 341 335 343 346 336 339 351 344 354 353 356 353
151 159 166 172 176 191 240 309 323 331 343 350 351 348 346 343 339 337 335 332 330 327 324 323 320 321 321 320 322 326 330 338 343 343 348 340 339 341 355 353 2 5 12
151 157 162 169 177 202 290 335 1 6 4 358 351 345 339 336 334 330 327 324 321 320 320 318 315 315 312 312 315 319 325 328 334 336 346 332 315 332 329 341 355 8 24
155 162 165 171 177 171 102 62 28 8 358 351 348 343 338 333 332 328 328 327 324 319 314 312 312 311 309 307 307 309 313 317 319 319 290 297 298 317 313 328 339 346 355
160 166 171 165 150 124 86 33 7 359 356 352 347 339 333 329 329 329 330 330 329 325 318 312 314 312 308 305 303 301 302 304 304 299 302 302 293 278 299 306 322 334 332
168 171 161 146 138 118 59 23 13 4 357 349 342 336 331 329 329 328 329 330 330 329 322 316 312 310 307 304 302 301 300 297 295 294 294 290 288 290 300 302 309 314 321
169 166 158 154 150 131 72 32 6 353 350 346 342 338 334 332 331 330 330 330 331 331 325 320 314 310 309 305 302 300 300 298 293 290 287 284 283 283 288 295 300 300 307
177 174 174 175 174 167 357 350 348 346 345 344 342 340 337 334 332 332 332 332 331 331 328 325 321 316 313 309 304 300 299 298 295 290 286 283 281 281 282 284 294 304 303
184 186 188 192 198 220 310 337 338 339 341 342 342 339 336 335 335 336 336 336 335 335 333 331 327 322 317 312 308 304 300 295 294 292 288 284 282 280 281 281 281 283 293
194 197 200 206 215 242 301 323 331 340 342 343 341 339 339 339 340 340 343 344 343 342 341 340 337 333 328 321 315 309 305 299 296 292 289 285 285 284 283 281 279 274 269
206 209 211 215 224 249 290 315 333 339 342 341 339 337 336 336 338 341 343 346 347 347 346 347 348 346 342 336 329 321 312 303 299 294 290 286 285 284 285 284 282 277 269
215 216 215 221 231 254 286 315 334 342 341 337 334 332 329 328 330 331 333 336 340 344 348 351 352 351 350 346 338 332 324 314 306 299 291 288 285 284 284 285 283 280 274
224 219 217 222 231 254 281 320 336 339 334 332 328 323 318 318 320 322 323 326 328 330 332 333 335 339 342 344 344 340 336 328 319 309 299 292 285 283 285 286 283 282 280
231 223 218 221 231 245 273 316 327 328 325 323 320 317 314 313 315 318 320 321 322 325 328 329 330 331 332 333 333 334 336 336 333 326 315 305 295 287 284 284 283 282 281
237 227 223 222 231 243 277 304 315 320 320 318 315 312 311 311 315 318 320 322 324 326 327 326 326 326 326 325 324 323 324 325 327 327 324 316 308 299 290 285 284 282 279
251 229 224 225 229 243 277 302 318 321 318 314 312 310 308 311 313 315 317 318 320 320 318 317 317 319 322 322 323 322 322 323 324 323 323 321 318 311 302 293 287 280 274
275 231 225 225 229 252 283 305 311 312 312 311 311 310 309 309 308 308 309 311 311 311 310 310 312 313 317 319 320 320 320 321 323 322 322 320 319 315 310 302 292 284 280
334 254 233 237 251 271 287 297 301 303 304 300 298 298 300 302 304 306 307 307 307 306 306 308 311 312 313 315 314 314 314 315 318 319 319 318 318 315 310 305 300 293 285
333 291 254 257 268 275 283 294 302 300 298 299 300 299 299 299 299 299 301 303 303 304 306 307 308 308 308 310 309 309 309 310 311 312 312 311 311 310 306 301 299 298 295
310 297 274 272 277 283 290 293 295 293 290 294 293 296 297 298 300 302 301 300 300 300 301 300 301 300 300 302 302 301 299 299 300 301 302 302 301 301 301 298 296 292 293
302 289 282 284 285 286 289 294 289 288 295 290 293 296 296 296 298 299 299 299 299 299 300 301 303 304 304 305 303 299 294 294 294 295 297 297 298 298 295 292 290 289 292
322 310 302 297 300 300 296 290 290 298 293 293 294 295 294 294 295 296 297 297 299 299 300 300 300 300 301 302 301 297 293 292 290 290 292 294 297 298 297 294 292 289 287
312 305 300 296 299 295 292 295 300 298 298 297 296 296 297 298 299 299 299 298 298 295 295 296 296 297 298 297 297 297 294 288 285 288 290 293 295 295 295 296 297 291 281
311 306 299 298 297 297 298 301 300 300 302 304 304 304 302 302 299 296 295 296 297 295 292 290 295 297 297 295 296 293 292 289 285 285 286 291 292 293 295 295 296 297 289
310 304 297 293 297 303 304 306 306 305 303 302 301 300 300 300 299 298 297 296 296 297 297 297 297 295 294 295 295 291 287 283 282 284 286 288 289 291 295 293 292 293 294
304 300 296 291 296 301 304 308 310 310 308 305 303 302 301 301 301 301 303 302 300 299 296 295 295 295 294 296 294 290 287 283 279 280 278 279 286 285 287 284 282 284 284